Location: Lourdes
(43.1000°N, 0.0500°W)
Time: 18:22:53
(UTC+00:00)

Cosmos 2181 Rocket - Pass Details

Date: 30 November 2020
Orbit: 951 x 1015 km, 82.9° (Epoch: 22 January)

Event Time Altitude Azimuth Distance (km) Brightness Sun altitude
Rises 17:10:35 0° 175° (S) 3,734 7.3 -8.1°
Reaches altitude 10° 17:13:08 10° 172° (S) 2,784 6.6 -8.5°
Maximum altitude 17:19:27 64° 93° (E) 1,109 4.1 -9.6°
Drops below altitude 10° 17:25:43 10° 14° (NNE) 2,769 6.1 -10.6°
Sets 17:28:15 0° 11° (NNE) 3,713 6.7 -11.1°
